Theta_e
305 307 307 305 306 305 304 305 306 305 308 308 308 308 306 303 301 300 298 297 297 295
305 304 305 303 305 306 303 302 300 302 303 304 304 305 305 302 300 299 297 297 296 295
303 304 303 302 302 303 301 300 297 297 300 301 302 303 303 302 300 299 297 297 295 292
300 301 301 302 302 301 299 298 296 295 296 298 299 300 301 301 299 297 297 295 292 289
299 299 300 301 301 299 299 296 295 294 293 294 296 296 298 296 295 295 292 290 288 287
298 298 299 300 298 297 295 293 291 291 291 291 292 293 295 295 293 293 292 289 287 286
298 298 299 298 296 295 293 291 290 289 288 288 289 291 292 292 291 290 290 288 287 285
297 296 295 293 292 291 289 289 287 286 285 284 285 288 288 289 288 288 286 285 284 283
293 291 291 290 290 289 287 286 285 285 285 283 286 289 290 288 287 286 284 283 282 282
289 288 289 289 288 287 286 284 285 283 283 283 284 289 290 289 285 285 284 283 282 281
286 286 285 285 286 285 283 283 283 282 281 282 284 288 290 289 284 284 283 283 282 282
284 285 283 283 283 280 279 279 279 279 279 280 283 287 289 288 283 282 282 282 282 282
285 284 284 283 279 278 277 279 280 279 278 280 283 286 288 288 282 280 280 281 282 283
282 280 279 277 278 277 276 278 279 281 281 282 282 284 288 289 282 281 279 280 281 282
Wind_Speed
10 9 9 10 8 9 9 10 12 13 13 12 12 12 13 11 12 14 13 15 12 9
8 8 9 7 8 8 8 8 11 14 14 12 12 12 13 11 13 12 13 13 12 9
8 8 7 7 8 9 9 9 10 11 13 13 13 14 14 11 12 13 11 11 13 12
6 7 7 8 8 9 8 10 10 11 12 13 13 13 13 12 12 15 13 11 14 14
7 7 9 11 10 8 10 9 11 11 11 12 12 12 14 12 12 15 13 14 12 12
8 9 12 11 8 8 8 10 9 10 12 12 13 12 13 12 12 13 13 13 13 13
12 12 10 8 7 8 7 9 10 10 10 10 10 12 12 12 10 11 10 11 12 12
9 6 6 7 7 7 7 6 7 8 7 7 9 9 11 12 12 12 10 9 9 11
7 6 7 7 7 7 8 8 8 9 9 9 8 14 19 14 11 12 12 12 10 10
7 7 8 7 7 8 8 6 9 8 8 9 9 16 19 19 10 11 12 12 12 11
6 7 5 5 8 6 6 9 8 8 7 6 7 15 17 19 9 8 10 12 14 14
4 6 4 6 6 2 3 3 4 4 6 7 6 16 17 15 7 7 9 11 12 14
5 5 6 5 4 3 3 4 4 4 5 5 6 14 17 17 7 9 8 8 10 19
3 4 4 3 2 2 1 3 3 5 5 6 7 9 18 21 7 8 8 8 8 8
Wind_Direction
191 200 206 199 194 202 203 206 205 212 214 205 206 199 195 196 200 198 203 201 211 197
202 198 204 196 199 202 197 194 193 201 205 208 202 201 195 197 199 198 198 200 199 201
209 210 202 191 200 201 196 192 187 190 203 206 208 204 199 198 198 197 199 199 196 195
223 216 211 217 215 205 189 188 191 192 201 207 208 207 204 202 198 199 197 195 197 195
230 220 225 227 221 195 202 191 191 192 196 202 206 206 207 200 194 197 194 190 185 187
237 225 228 229 216 202 193 191 185 188 195 195 200 203 210 206 198 200 196 187 187 183
233 232 237 241 220 208 197 191 188 193 198 195 194 200 204 206 200 198 195 187 188 182
244 233 228 224 220 214 202 200 190 188 199 191 194 198 196 197 195 192 181 181 179 176
235 228 229 234 226 206 197 186 187 202 200 199 207 210 205 195 196 192 182 175 166 154
238 226 229 222 210 217 210 185 199 201 194 206 207 209 208 201 194 190 189 176 164 159
275 264 251 230 224 203 180 195 194 197 197 200 210 208 209 203 194 190 183 175 171 164
256 264 254 245 241 205 168 170 181 174 185 191 201 207 206 192 180 177 176 169 165 168
282 259 245 229 204 213 164 184 173 173 185 198 199 202 202 188 172 164 160 150 163 173
266 238 242 204 170 189 171 124 169 181 181 175 180 194 201 194 177 166 154 153 168 177